Weather History for KMDZ - December, 2012

Change the Weather History Date:

Sunday, December 30, 2012

  Actual Average Record
Temperature  
Mean Temperature 14 °F -  
Max Temperature 21 °F 21 °F 42 °F (2004)
Min Temperature 6 °F 1 °F -26 °F (2013)
Degree Days  
Heating Degree Days 52    
Moisture  
Dew Point 9 °F    
Average Humidity 83    
Maximum Humidity 92    
Minimum Humidity 73    
Precipitation  
Precipitation 0.00 in - - ()
Sea Level Pressure  
Sea Level Pressure 30.02 in    
Wind  
Wind Speed 6 mph (SSW)    
Max Wind Speed 10 mph    
Max Gust Speed -    
Visibility 7 miles    
Events Snow    
Averages and records for this station are not official NWS values.
T = Trace of Precipitation, MM = Missing Value Source: NWS Daily Summary

Daily Weather History Graph

Daily Weather History Graph

Search for Another Location

Airport or City:

Trip Planner

Search our weather history database for the weather conditions in past years. The results will help you decide how hot, cold, wet, or windy it might be!

Date:

Astronomy

Dec. 30, 2012 Rise Set
Actual Time 7:39 AM CST 4:28 PM CST
Civil Twilight 7:05 AM CST 5:02 PM CST
Nautical Twilight 6:28 AM CST 5:39 PM CST
Astronomical Twilight 5:53 AM CST 6:15 PM CST
Moon 7:07 PM CST (12/30) 8:42 AM CST (12/30)
Length of Visible Light 9h 56m
Length of Day
8h 48m
Waning Gibbous, 95% of the Moon is Illuminated
Dec 30
Waning Gibbous
Jan 4
Last Quarter
Jan 11
New
Jan 18
First Quarter
Jan 26
Full

Hourly Weather History & Observations

Time (CST) Temp. Windchill Dew Point Humidity Pressure Visibility Wind Dir Wind Speed Gust Speed Precip Events Conditions
12:15 AM 14.0 °F 3.9 °F 10.4 °F 86% 30.05 in 4.0 mi WSW 6.9 mph - N/A Snow Light Snow
12:35 AM 14.0 °F 3.9 °F 10.4 °F 86% 30.06 in 4.0 mi WSW 6.9 mph - N/A Snow Light Snow
12:55 AM 14.0 °F 2.9 °F 10.4 °F 86% 30.06 in 5.0 mi WSW 8.1 mph - N/A Snow Light Snow
1:15 AM 14.0 °F 3.9 °F 10.4 °F 86% 30.06 in 5.0 mi West 6.9 mph - N/A Snow Light Snow
1:35 AM 14.0 °F 3.9 °F 10.4 °F 86% 30.06 in 5.0 mi WSW 6.9 mph - N/A Snow Light Snow
1:55 AM 14.0 °F 5.1 °F 10.4 °F 86% 30.07 in 4.0 mi West 5.8 mph - N/A Snow Light Snow
2:15 AM 12.2 °F 2.9 °F 10.4 °F 92% 30.07 in 4.0 mi West 5.8 mph - N/A Snow Light Snow
2:35 AM 12.2 °F 2.9 °F 10.4 °F 92% 30.07 in 5.0 mi WSW 5.8 mph - N/A Snow Light Snow
2:55 AM 12.2 °F 2.9 °F 10.4 °F 92% 30.08 in 7.0 mi WSW 5.8 mph - N/A Snow Light Snow
3:15 AM 12.2 °F 1.7 °F 8.6 °F 85% 30.09 in 5.0 mi WSW 6.9 mph - N/A Snow Light Snow
3:35 AM 12.2 °F -0.2 °F 8.6 °F 85% 30.09 in 5.0 mi West 9.2 mph - N/A Snow Light Snow
3:55 AM 12.2 °F -1.0 °F 8.6 °F 85% 30.10 in 7.0 mi West 10.4 mph - N/A Snow Light Snow
4:15 AM 12.2 °F -1.0 °F 8.6 °F 85% 30.10 in 7.0 mi West 10.4 mph - N/A Snow Light Snow
4:35 AM 12.2 °F 1.7 °F 8.6 °F 85% 30.10 in 7.0 mi West 6.9 mph - N/A Snow Light Snow
4:55 AM 12.2 °F 1.7 °F 8.6 °F 85% 30.10 in 5.0 mi West 6.9 mph - N/A Snow Light Snow
5:15 AM 10.4 °F 0.8 °F 8.6 °F 92% 30.10 in 5.0 mi WSW 5.8 mph - N/A Snow Light Snow
5:35 AM 10.4 °F 0.8 °F 8.6 °F 92% 30.10 in 5.0 mi WSW 5.8 mph - N/A Snow Light Snow
5:55 AM 10.4 °F -2.4 °F 6.8 °F 85% 30.11 in 7.0 mi West 9.2 mph - N/A Snow Light Snow
6:15 AM 10.4 °F 2.2 °F 6.8 °F 85% 30.11 in 7.0 mi WNW 4.6 mph - N/A Snow Light Snow
6:35 AM 10.4 °F 2.2 °F 6.8 °F 85% 30.10 in 7.0 mi WSW 4.6 mph - N/A Snow Light Snow
6:55 AM 8.6 °F 2.0 °F 6.8 °F 92% 30.10 in 5.0 mi WSW 3.5 mph - N/A Snow Light Snow
7:15 AM 8.6 °F 0.1 °F 6.8 °F 92% 30.11 in 5.0 mi SW 4.6 mph - N/A Snow Light Snow
7:35 AM 8.6 °F 0.1 °F 6.8 °F 92% 30.10 in 4.0 mi SW 4.6 mph - N/A Snow Light Snow
7:55 AM 8.6 °F -1.3 °F 6.8 °F 92% 30.11 in 2.5 mi SW 5.8 mph - N/A Snow Light Snow
8:15 AM 8.6 °F -1.3 °F 6.8 °F 92% 30.11 in 1.2 mi SW 5.8 mph - N/A Snow Light Snow
8:35 AM 6.8 °F -2.0 °F 3.2 °F 85% 30.11 in 1.0 mi SW 4.6 mph - N/A Snow Light Snow
8:55 AM 6.8 °F -2.0 °F 3.2 °F 85% 30.11 in 1.0 mi SSW 4.6 mph - N/A Snow Light Snow
9:15 AM 6.8 °F - 3.2 °F 85% 30.11 in 1.5 mi Calm Calm - N/A Snow Light Snow
9:35 AM 6.8 °F -2.0 °F 3.2 °F 85% 30.13 in 2.5 mi SSW 4.6 mph - N/A Snow Light Snow
9:55 AM 6.8 °F -3.5 °F 3.2 °F 85% 30.14 in 1.5 mi SSW 5.8 mph - N/A Snow Light Snow
10:15 AM 8.6 °F 0.1 °F 3.2 °F 79% 30.14 in 3.0 mi SSW 4.6 mph - N/A Snow Light Snow
10:35 AM 8.6 °F -1.3 °F 5.0 °F 85% 30.14 in 4.0 mi SSW 5.8 mph - N/A Snow Light Snow
10:55 AM 8.6 °F 0.1 °F 5.0 °F 85% 30.14 in 5.0 mi SSW 4.6 mph - N/A Snow Light Snow
11:15 AM 8.6 °F -1.3 °F 5.0 °F 85% 30.13 in 5.0 mi SSW 5.8 mph - N/A   Clear
11:35 AM 8.6 °F 0.1 °F 5.0 °F 85% 30.12 in 7.0 mi SSW 4.6 mph - N/A   Clear
11:55 AM 10.4 °F 2.2 °F 5.0 °F 79% 30.10 in 7.0 mi South 4.6 mph - N/A   Clear
12:15 PM 10.4 °F 4.0 °F 5.0 °F 79% 30.09 in 7.0 mi South 3.5 mph - N/A   Clear
12:35 PM 10.4 °F 4.0 °F 5.0 °F 79% 30.07 in 7.0 mi SSE 3.5 mph - N/A   Clear
12:55 PM 10.4 °F 2.2 °F 5.0 °F 79% 30.06 in 10.0 mi SSE 4.6 mph - N/A   Clear
1:15 PM 12.2 °F 4.3 °F 6.8 °F 79% 30.06 in 7.0 mi SSE 4.6 mph - N/A   Clear
1:35 PM 12.2 °F 4.3 °F 6.8 °F 79% 30.05 in 10.0 mi SSE 4.6 mph - N/A   Clear
1:55 PM 12.2 °F 1.7 °F 6.8 °F 79% 30.04 in 10.0 mi SSE 6.9 mph - N/A   Clear
2:15 PM 14.0 °F 3.9 °F 6.8 °F 73% 30.02 in 10.0 mi South 6.9 mph - N/A   Clear
2:35 PM 14.0 °F 8.2 °F 6.8 °F 73% 30.02 in 10.0 mi South 3.5 mph - N/A   Clear
2:55 PM 14.0 °F 5.1 °F 8.6 °F 79% 30.02 in 10.0 mi South 5.8 mph - N/A   Clear
3:15 PM 15.8 °F 8.6 °F 8.6 °F 73% 30.02 in 10.0 mi South 4.6 mph - N/A   Clear
3:35 PM 15.8 °F 10.2 °F 8.6 °F 73% 30.00 in 10.0 mi SSE 3.5 mph - N/A   Clear
3:55 PM 15.8 °F 8.6 °F 8.6 °F 73% 29.99 in 10.0 mi SE 4.6 mph - N/A   Clear
4:15 PM 15.8 °F 7.2 °F 8.6 °F 73% 29.98 in 10.0 mi SE 5.8 mph - N/A   Clear
4:35 PM 14.0 °F 5.1 °F 8.6 °F 79% 29.97 in 10.0 mi ESE 5.8 mph - N/A   Clear
4:55 PM 14.0 °F 5.1 °F 8.6 °F 79% 29.96 in 10.0 mi ESE 5.8 mph - N/A   Clear
5:15 PM 14.0 °F 5.1 °F 8.6 °F 79% 29.95 in 10.0 mi SE 5.8 mph - N/A   Clear
5:35 PM 14.0 °F 5.1 °F 8.6 °F 79% 29.95 in 10.0 mi ESE 5.8 mph - N/A   Clear
5:55 PM 14.0 °F 5.1 °F 8.6 °F 79% 29.94 in 10.0 mi SE 5.8 mph - N/A   Clear
6:15 PM 15.8 °F 6.1 °F 8.6 °F 73% 29.93 in 10.0 mi SE 6.9 mph - N/A   Clear
6:35 PM 15.8 °F 5.1 °F 8.6 °F 73% 29.92 in 10.0 mi SE 8.1 mph - N/A   Clear
6:55 PM 15.8 °F 5.1 °F 10.4 °F 79% 29.91 in 10.0 mi SE 8.1 mph - N/A   Clear
7:15 PM 17.6 °F 8.2 °F 10.4 °F 73% 29.91 in 10.0 mi SSE 6.9 mph - N/A   Mostly Cloudy
7:35 PM 17.6 °F 8.2 °F 12.2 °F 79% 29.91 in 10.0 mi SSE 6.9 mph - N/A   Overcast
7:55 PM 17.6 °F 8.2 °F 12.2 °F 79% 29.90 in 10.0 mi SSE 6.9 mph - N/A   Overcast
8:15 PM 17.6 °F 9.3 °F 12.2 °F 79% 29.90 in 10.0 mi South 5.8 mph - N/A   Scattered Clouds
8:35 PM 17.6 °F 9.3 °F 12.2 °F 79% 29.88 in 10.0 mi SSE 5.8 mph - N/A   Mostly Cloudy
8:55 PM 17.6 °F 9.3 °F 12.2 °F 79% 29.88 in 10.0 mi SSE 5.8 mph - N/A   Overcast
9:15 PM 17.6 °F 9.3 °F 12.2 °F 79% 29.87 in 10.0 mi SSE 5.8 mph - N/A   Overcast
9:35 PM 19.4 °F 8.6 °F 14.0 °F 80% 29.86 in 10.0 mi South 9.2 mph - N/A   Overcast
9:55 PM 19.4 °F 10.4 °F 15.8 °F 86% 29.86 in 10.0 mi South 6.9 mph - N/A   Overcast
10:15 PM 19.4 °F 10.4 °F 15.8 °F 86% 29.85 in 10.0 mi South 6.9 mph - N/A   Overcast
10:35 PM 19.4 °F 10.4 °F 15.8 °F 86% 29.84 in 10.0 mi South 6.9 mph - N/A   Overcast
10:55 PM 19.4 °F 9.5 °F 15.8 °F 86% 29.84 in 10.0 mi SSW 8.1 mph - N/A   Overcast
11:15 PM 21.2 °F 13.6 °F 15.8 °F 80% 29.83 in 10.0 mi SSW 5.8 mph - N/A   Overcast
11:35 PM 21.2 °F 12.6 °F 17.6 °F 86% 29.83 in 10.0 mi SW 6.9 mph - N/A   Overcast
11:55 PM 21.2 °F 10.1 °F 17.6 °F 86% 29.83 in 10.0 mi SW 10.4 mph - N/A   Overcast